Weather in Ust-Lyzha

Russia / Komi Republic     65°40′54″N   56°40′37″E
temp.,
°C
wind,
m/s
gust,
m/s
humid.,
%
clouds,
%
prec.,
mm/h
press.,
hPa
HPBL,
m
23 october, sat
sat2300:000se27100100 3.9 978367
03:000sse13100100 6.8 978233
06:000w2599100 2.1 978297
09:00−1wnw3797100 4.4 982422
12:00−1nw3796100 1.4 985514
15:00−1nw41090100 1.9 988668
18:00−3wnw412917 0.0 991426
21:00−4w4119231 0.0 995326
24 october, sun
sun2400:00−4w413905 0.0 997373
03:00−4w412905 0.0 999393
06:00−5w411935 0.0 1001297
09:00−4w31091100 0.0 1003306
12:00−2wsw388996 0.0 1004338
15:00−3wsw2695100 0.0 1005178
18:00−5wsw2697100 0.0 1006129
21:00−4wsw2695100 0.0 1006162
25 october, mon
mon2500:00−5wsw1198100 0.0 100510
03:00−5sw1398100 0.1 100675
06:00−7w1199100 0.0 100611
09:00−4w1295100 0.0 100666
12:00−2w1391100 0.0 1007221
15:00−5wsw1198100 0.0 100721
18:00−3nw379698 0.4 1008471
21:00−5w389493 0.4 1009256
26 october, tue
tue2600:00−7w3119194 0.0 1010283
03:00−6w4138998 0.0 1010431
06:00−7w413915 0.0 1010352
09:00−6w412885 0.0 1011411
12:00−4w411835 0.0 1011604
15:00−5w4108535 0.0 1012329
18:00−7w399320 0.0 1012218
21:00−9wsw269733 0.0 1013102
27 october, wed
wed2700:00−12sw119888 0.0 101310
03:00−12s1198100 0.0 101325
06:00−7sse3994100 0.0 1011236
09:00−5se41187100 0.0 1009450
12:00−4ese41295100 0.8 1006554
15:00−4ese51196100 3.2 1004658
18:00−4e4996100 1.8 1002491
21:00−4ene4896100 3.3 1002354